AirNav   Air Wisconsin pilot careers
 
 1563 users online  

0GE0 Pinewood Airport
Douglasville, Georgia, USA

GOING TO DOUGLASVILLE?


FAA INFORMATION EFFECTIVE 21 JUNE 2018

Location

FAA Identifier: 0GE0
Lat/Long: 33-46-55.3840N / 084-48-02.7750W
33-46.923067N / 084-48.046250W
33.7820511 / -84.8007708
(estimated)
Elevation: 1085 ft. / 330.7 m (surveyed)
Variation: 02W (1985)
From city: 3 miles NW of DOUGLASVILLE, GA
Time zone: UTC -4 (UTC -5 during Standard Time)
Zip code: 30134

Airport Operations

Airport use: Private use. Permission required prior to landing
Activation date: 08/1972
Control tower: no
ARTCC: ATLANTA CENTER
FSS: MACON FLIGHT SERVICE STATION
Attendance: CONTINUOUS
Wind indicator: yes
Segmented circle: no

Airport Communications

WX AWOS-3 at PUJ (10 nm NW): 126.225 (770-445-3870)
WX ASOS at FTY (14 nm E): PHONE 404-696-5660
WX AWOS-3PT at RYY (17 nm NE): PHONE 770-425-3406
WX AWOS-3 at CTJ (20 nm SW): 118.175 (770-214-9667)

Nearby radio navigation aids

VOR radial/distance  VOR name  Freq  Var
ATLr302/20.4ATLANTA VORTAC116.9005W
PDKr262/25.6PEACHTREE VOR/DME116.6005W
RMGr144/27.8ROME VORTAC115.4001E

 
NDB name  Hdg/Dist  Freq  Var  ID
FLANC283/8.234405WFT ..-. -
CARROLLTON056/21.027804WGPQ --. .--. --.-
CARTERSVILLE179/25.130804WEVZ . ...- --..
COWETA COUNTY355/31.823403WEQQ . --.- --.-
CHERO214/32.241505WDJD -.. .--- -..
PECAT336/32.931605WFFC ..-. ..-. -.-.
CALHOUN175/37.732305WOUK --- ..- -.-

Airport Services

Parking: hangars
Airframe service: NONE
Powerplant service: NONE
Bottled oxygen: NONE
Bulk oxygen: NONE

Runway Information

Runway 2/20

Dimensions: 2000 x 30 ft. / 610 x 9 m
Surface: turf
RUNWAY 2  RUNWAY 20
Traffic pattern: leftleft
Runway end identifier lights: nono
Obstructions: tree
+30' TREE 40' RIGHT OF CENTERLINE.
trees
+50' TREES 35' FROM BOTH SIDES OF RWY AT THR.

Airport Ownership and Management from official FAA records

Ownership: Privately-owned
Owner: MARK BAGWELL & BOB MEADOWS
544 JACK MEADOWS ROAD
DOUGLASVILLE, GA 30134
Phone 770-949-9635
Manager: BOB MEADOWS
544 JACK MEADOWS ROAD
DOUGLASVILLE, GA 30134
Phone 770-949-9635

Airport Operational Statistics

Aircraft based on the field: 6
Single engine airplanes: 6
    
Aircraft operations: avg 50/month *
83% local general aviation
17% transient general aviation
* for 12-month period ending 19 September 1978

Additional Remarks

EXCESSIVE GRADE CHANGES BETWEEN RWY ENDS AND CENTER OF RWY.

Instrument Procedures

There are no published instrument procedures at 0GE0.

Some nearby airports with instrument procedures:

KPUJ - Paulding Northwest Atlanta Airport (10 nm NW)
KFTY - Fulton County Airport-Brown Field (14 nm E)
KMGE - Dobbins Air Reserve Base (16 nm NE)
KRYY - Cobb County International Airport-McCollum Field (17 nm NE)
KCTJ - West Georgia Regional Airport-O V Gray Field (20 nm SW)
 
Loc | Ops | Rwys | IFR | FBO | Links
Com | Nav | Svcs | Stats | Notes

AirNav Hotels Sweepstakes
 
Area around 0GE0 (Pinewood Airport)
 
Road maps at: MapQuest Bing Google
 
Aerial photo
WARNING: Photo may not be current or correct
Aerial photo of 0GE0 (Pinewood Airport)
Photo by Bob Meadows
Photo taken 14-Apr-2010
looking Northeast.

Do you have a better or more recent aerial photo of Pinewood Airport that you would like to share? If so, please send us your photo.

 
Sectional chart

 
Airport distance calculator
Flying to Pinewood Airport? Find the distance to fly.

From to 0GE0

Sunrise and sunset
Times for 21-Jun-2018
 Local
(UTC-4)
 Zulu
(UTC)
Morning civil twilight06:0110:01
Sunrise06:3010:30
Sunset20:5200:52
Evening civil twilight21:2101:21

Current date and time
Zulu (UTC)  21-Jun-2018 17:20:32
Local (UTC-4)  21-Jun-2018 13:20:32
 
METAR
KPUJ 
10nm NW 
211655Z AUTO 26006KT 10SM BKN026 28/21 A2993 RMK AO2
KFTY 
14nm E 
211653Z 25004KT 10SM FEW043 SCT080 SCT100 29/25 A2991 RMK AO2 LTG DSNT S AND SW RAB23E44 SLP117 P0000 T02890250
KMGE 
16nm NE 
211656Z 27008KT 10SM SCT035 BKN120 BKN250 30/23 A2992 RMK AO2A SLP121 T02980227 $
KRYY 
17nm NE 
211648Z 25008KT 10SM CLR 29/23 A2993 RMK AO2 RAB1558E16 SLP855 P0001 T02890228
KATL 
20nm SE 
211652Z 27009KT 10SM SCT034TCU SCT150 BKN200 31/22 A2992 RMK AO2 LTG DSNT SW AND W SLP117 CB DSNT SW TCU E-SE-S-SW T03110222
KCTJ 
20nm SW 
211655Z AUTO 28008KT 10SM SCT019 SCT039 29/23 A2996 RMK AO2 T02850232
TAF
KFTY 
14nm E 
211128Z 2112/2212 27003KT P6SM BKN150 FM211500 26006KT P6SM BKN035 BKN120 FM211800 25009KT P6SM VCSH BKN050 TEMPO 2119/2123 5SM TSRA OVC030CB FM220100 24007KT P6SM OVC025 FM220500 24006KT P6SM BKN015 FM220900 23005KT P6SM FEW008 BKN010
KMGE 
16nm NE 
211300Z 2113/2219 23006KT 9999 SCT060 BKN150 QNH2990INS BECMG 2114/2115 26010G15KT 9999 SCT045 BKN060 OVC150 QNH2988INS TEMPO 2118/2124 VRB15G25KT 6000 -TSRA OVC030CB BECMG 2123/2124 23006KT 9999 BKN020 BKN060 QNH2984INS TEMPO 2206/2212 BKN007 BECMG 2214/2215 25012G18KT 9999 SCT020 BKN070 QNH2987INS TX31/2120Z TN21/2210Z
KRYY 
17nm NE 
211128Z 2112/2212 28003KT P6SM BKN150 FM211500 27005KT P6SM OVC035 FM211700 26008KT P6SM VCSH OVC040 TEMPO 2118/2122 5SM TSRA OVC030CB FM220000 23007KT P6SM OVC025 FM220400 23005KT P6SM BKN015 FM220900 23005KT P6SM BKN008
KATL 
20nm SE 
211558Z 2116/2218 25010KT P6SM VCSH BKN040 BKN150 TEMPO 2117/2121 4SM TSRA OVC030CB FM220100 26008KT P6SM VCSH BKN035 FM220500 24006KT P6SM BKN015 FM220800 24006KT P6SM BKN010 FM221500 24008KT P6SM BKN020
NOTAMs
Click for the latest NOTAMs
NOTAMs are issued by the DoD/FAA and will open in a separate window not controlled by AirNav.

 

 
 

Would you like to see your business listed on this page?

 If your business provides an interesting product or service to pilots, flight crews, aircraft, or users of the Pinewood Airport, you should consider listing it here.  To start the listing process, click on the button below
 
Add a business
 

Other Pages about Pinewood Airport

Update a link
 
Copyright © AirNav, LLC. All rights reserved. Privacy Policy  Contact